Lid_Strength_Index
0 1 1 0 1 1 1 1 -1 -1 -1 -1 -1 -1 -1 -0 0 0 0 1 1 1
1 1 1 1 1 2 1 1 0 0 0 -0 -0 -1 -1 0 0 0 0 0 0 1
2 2 2 2 2 1 2 1 1 1 1 1 1 0 -0 0 -0 0 1 0 1 1
3 3 2 3 2 2 1 2 2 2 2 2 2 1 1 1 1 1 1 0 1 1
3 3 3 3 2 2 3 3 4 4 4 4 4 4 4 4 3 2 1 1 1 1
3 3 3 3 4 4 5 5 5 5 6 6 6 6 5 5 4 3 2 1 1 1
4 4 5 5 5 6 6 7 7 6 6 6 7 7 6 6 6 4 3 2 0 1
5 5 5 6 7 6 6 6 6 6 6 6 6 7 7 6 6 5 5 5 4 1
6 6 6 6 6 6 6 6 6 6 6 7 7 8 8 7 7 7 6 6 5 3
6 6 6 6 6 6 6 6 6 6 6 5 6 7 8 7 6 7 6 5 5 4
6 6 6 6 6 6 7 7 6 5 5 5 6 7 8 8 6 6 5 5 5 4
6 7 6 6 7 6 7 8 6 5 4 5 5 7 8 7 6 6 5 4 3 3
7 7 7 7 8 7 8 7 6 5 4 5 5 7 8 7 6 6 5 5 4 5
7 7 7 7 7 7 7 6 5 4 4 3 4 4 7 7 4 5 5 4 3 1